Location: fuzhou
(26.1169°N, 119.3250°E)
Time: 06:03:03
(UTC+08:00)

Hubble Space Telescope - Visible Passes

Search period start: 26 April 2018 00:00
Search period end: 06 May 2018 00:00
Orbit: 537 x 541 km, 28.5° (Epoch: 25 April)

Date Brightness Start Highest point End Pass type
(mag) Time Alt. Az. Time Alt. Az. Time Alt. Az.
26 Apr 1.5 18:54:08 10° SW 18:57:55 35° SSE 19:01:42 10° E visible
26 Apr 1.9 20:34:52 10° W 20:37:34 40° W 20:37:34 40° W visible
27 Apr 1.1 20:24:35 10° W 20:28:15 64° WNW 20:28:15 64° WNW visible
28 Apr 0.9 20:14:20 10° W 20:18:27 68° N 20:18:48 64° NNE visible
29 Apr 1.0 20:04:05 10° W 20:08:11 63° N 20:09:15 45° NE visible
30 Apr 1.1 19:53:50 10° W 19:57:56 61° N 19:59:36 33° ENE visible
01 May 1.1 19:43:34 10° W 19:47:40 61° N 19:49:54 25° ENE visible
01 May 3.8 21:24:51 10° WNW 21:25:15 12° WNW 21:25:15 12° WNW visible
02 May 1.1 19:33:18 10° WNW 19:37:24 62° N 19:40:09 20° E visible
02 May 3.5 21:14:33 10° W 21:15:30 16° W 21:15:30 16° W visible
03 May 1.0 19:23:02 10° WNW 19:27:08 66° N 19:30:23 16° E visible
03 May 3.1 21:04:18 10° W 21:05:43 20° W 21:05:43 20° W visible
04 May 0.9 19:12:44 10° WNW 19:16:52 72° N 19:20:35 12° E visible
04 May 2.7 20:54:03 10° W 20:55:56 24° W 20:55:56 24° W visible
05 May 0.8 19:02:27 10° WNW 19:06:35 81° NNE 19:10:43 10° E visible
05 May 2.4 20:43:51 10° W 20:46:09 27° WSW 20:46:09 27° WSW visible
